Погода в Гейнсвилле

США     29°39′06″N   82°19′30″W
темп.,
°C
ветер,
м/с
пор.,
м/с
влажн.,
%
обл.,
%
осадки,
мм/ч
давл.,
гПа
погр.,
м
16 апреля, пт
пт1623:00+19зюз287986 0.0 1012412
02:00+19з2791100 0.2 1012374
05:00+19зсз1594100 0.1 1011294
08:00+19ссз148999 0.1 1012280
11:00+24ссз125496 0.0 1013911
14:00+21зюз3479100 0.6 1011353
17:00+17ссз3794100 3.9 1010370
20:00+15вюв2697100 8.6 1011235
17 апреля, сб
сб1723:00+16вюв129887 10.7 1013192
02:00+16в1398100 10.8 1012182
05:00+16всв0198100 0.0 101192
08:00+17ссз1296100 0.1 1013134
11:00+18св119157 0.0 1014287
14:00+27зюз355690 0.0 10121454
17:00+24юз3675100 0.8 1011807
20:00+21зюз2590100 1.1 1011120
18 апреля, вс
вс1823:00+20з2598100 2.5 1012181
02:00+19зсз1498100 6.2 1013216
05:00+19сз1198100 0.3 101248
08:00+20зюз1398100 2.5 1013157
11:00+22з2490100 1.3 1013476
14:00+24з3684100 4.1 1012796
17:00+22з1493100 2.9 1012337
20:00+20юв0099100 6.1 101223
19 апреля, пн
пн1923:00+19сз1299100 1.1 101388
02:00+18сз149999 2.1 1013233
05:00+18сз1499100 6.6 1012274
08:00+18зсз249896 10.9 1014282
11:00+19сз138288 1.4 1015569
14:00+27зсз234298 1.6 10131498
17:00+27з33390 0.0 10121712
20:00+21сз26600 0.0 1014119
20 апреля, вт
вт2023:00+17ссв25740 0.0 1015131
02:00+18вюв29945 0.0 1015311
05:00+17вюв279078 0.1 1015228
08:00+18вюв288683 0.3 1015300
11:00+20в2588100 1.3 1015472
14:00+20юв1293100 2.7 1014369
17:00+21зюз019087 0.6 1013371
20:00+20вюв0196100 0.7 101312